Home > Time Zones > World Clock > Weather > Russia > Perm > Past weeks

Flag for Russia Weather past 2 weeks in Perm, Russia

Now
36 °F

Light rain. Overcast.


Feels Like: 31 °F
Forecast: 31 / 45 °F
Wind: 6 mph from Northwest

Location: Perm'/Bolshoe Savino

Current Time: Sep 18, 2014 at 4:08:56 AM

Latest Report: Sep 18, 2014 at 3:30 AM


Visibility: N/A

Pressure: 30.01 "Hg

Humidity: 93%

Dew point: 34 °F

Location of PermLocation

Historic Weather in Perm — Graph

°F

Perm temperature yesterday

Maximum temperature yesterday: 45 °F (at 6:30 PM)
Minimum temperature yesterday: 36 °F (at 7:30 AM)
Average temperature yesterday: 39 °F

Past Weeks' High & Low Weather Summary

 TemperatureHumidityPressure
High70 °F (Sep 12, 3:00 PM)100% (Sep 3, 4:00 AM)30.33 "Hg (Sep 3, 4:00 AM)
Low28 °F (Sep 15, 7:00 AM)47% (Sep 8, 3:30 PM)29.65 "Hg (Sep 6, 6:00 AM)
Average49 °F85%30.06 "Hg
* Reported Sep 3 3:00 AM — Sep 18 3:00 AM, Perm, Weather by CustomWeather, © 2014

Note: Actual official high and low records may vary slightly from our data, if they occured in-between our weather recording intervals... More about our weather records

Advertising

Perm weather history for previous 24 hours

 ConditionsComfort  
Time TempWeatherWind HumidityBarometerVisibility
3:00 AM
Sep 18
36 °FLight rain. Overcast.3 mph93%30.01 "HgN/A
2:30 AM36 °FOvercast.8 mph93%30.01 "HgN/A
2:00 AM36 °FLight rain. Overcast.8 mph93%29.98 "HgN/A
1:30 AM36 °FLight rain. Overcast.8 mph93%30.01 "HgN/A
1:00 AM36 °FLight rain. Overcast.8 mph93%29.98 "HgN/A
12:30 AM36 °FPassing clouds.8 mph93%29.98 "HgN/A
12:00 AM37 °FPassing clouds.8 mph87%29.98 "HgN/A
11:30 PM
Sep 17
37 °FPassing clouds.8 mph87%29.98 "HgN/A
11:00 PM37 °FPassing clouds.8 mph87%29.98 "HgN/A
10:30 PM37 °FPartly cloudy.6 mph87%29.98 "HgN/A
10:00 PM37 °FPartly cloudy.6 mph87%29.98 "HgN/A
9:30 PM37 °FPartly cloudy.8 mph87%29.98 "HgN/A
9:00 PM37 °FPartly cloudy.8 mph87%29.98 "HgN/A
8:30 PM39 °FPartly cloudy.8 mph81%29.95 "HgN/A
8:00 PM41 °FBroken clouds.8 mph81%29.95 "HgN/A
7:30 PM41 °FBroken clouds.8 mph81%29.95 "HgN/A
7:00 PM41 °FBroken clouds.13 mph76%29.95 "HgN/A
6:30 PM45 °FBroken clouds.10 mph76%29.95 "HgN/A
6:00 PM43 °FBroken clouds.10 mph76%29.95 "HgN/A
5:30 PM43 °FBroken clouds.8 mph76%29.92 "HgN/A
5:00 PM41 °FSprinkles. Partly sunny.6 mph87%29.95 "HgN/A
4:30 PM41 °FSprinkles. Partly sunny.10 mph87%29.95 "Hg5 mi
4:00 PM41 °FPartly sunny.1 mph93%29.95 "HgN/A
3:30 PM36 °FSprinkles. Cloudy.15 mph93%29.95 "Hg1 mi
3:00 PM43 °FSprinkles. Partly sunny.8 mph76%29.92 "HgN/A
2:30 PM41 °FPartly sunny.13 mph81%29.92 "HgN/A
2:00 PM43 °FPartly sunny.8 mph71%29.92 "HgN/A
1:30 PM41 °FMostly cloudy.10 mph81%29.92 "HgN/A
1:00 PM41 °FMostly cloudy.10 mph81%29.92 "HgN/A
12:30 PM39 °FMostly cloudy.10 mph87%29.92 "HgN/A
12:00 PM39 °FOvercast.10 mph87%29.92 "HgN/A
11:30 AM39 °FOvercast.8 mph87%29.95 "HgN/A
11:00 AM39 °FOvercast.8 mph87%29.95 "HgN/A
10:30 AM37 °FOvercast.10 mph93%29.92 "HgN/A
10:00 AM37 °FOvercast.10 mph87%29.92 "HgN/A
9:30 AM37 °FPartly sunny.8 mph93%29.92 "HgN/A
9:00 AM37 °FPartly sunny.10 mph93%29.95 "HgN/A
8:30 AM37 °FPartly sunny.8 mph93%29.92 "HgN/A
8:00 AM37 °FOvercast.8 mph93%29.92 "HgN/A
7:30 AM36 °FOvercast.8 mph100%29.92 "HgN/A
7:00 AM37 °FOvercast.8 mph93%29.92 "HgN/A
6:30 AM37 °FOvercast.8 mph93%29.92 "HgN/A
6:00 AM37 °FLight rain. Overcast.8 mph93%29.92 "HgN/A
5:30 AM37 °FLight rain. Overcast.8 mph93%29.92 "Hg4 mi
5:00 AM37 °FOvercast.8 mph93%29.89 "HgN/A
4:30 AM37 °FLow clouds.8 mph93%29.89 "HgN/A
4:00 AM37 °FOvercast.10 mph93%29.89 "HgN/A
Weather by CustomWeather, © 2014

See weather overviewHow to use our weather pages